Tracking 18850 objects as of 22-Nov-2017
HD Live streaming from Space Station
objects crossing your sky now

COSMOS 1777

Track COSMOS 1777 now!
10-day predictions
COSMOS 1777 is classified as:


NORAD ID: 16952
Int'l Code: 1986-070A
Perigee: 769.1 km
Apogee: 808.2 km
Inclination: 74.0 °
Period: 100.5 minutes
Semi major axis: 7159 km
RCS: 2.0477 m2 (large)
Launch date: September 10, 1986
Source: Commonwealth of Independent States (former USSR) (CIS)
Launch site: PLESETSK MISSILE AND SPACE COMPLEX (PKMTR)
aabbcc
Your satellite tracking list
Your tracking list is empty




NASA's NSSDC Master Catalog

Two Line Element Set (TLE):
1 16952U 86070A   17325.91326221 +.00000028 +00000-0 +19747-4 0  9990
2 16952 074.0053 093.8689 0027292 261.0074 247.4831 14.33065151630534
Source of the keplerian elements: AFSPC